Content
SEND FEEDBACK

Daily
Averages
Monthly
Summary
United States of America

NEW YORK - CENTRAL PARK, NEW YORK


Home > North America > United States > New York
Elevation: 14 feet     Latitude: 40 47N     Longitude: 073 58W

WEATHER
 
SELECT A DAY
Number of Records: 148,192;   Date Range: 11/1/95 - 8/28/14
 
SHARE

PRINT THIS DATA

[ ← Previous Day ]
WEATHER ALMANAC - JANUARY 21, 2013
[ Next Day → ]
[ °C ]   °F
Weather ElementAverageHighLow
Temperature27.7 °F32 °F (12:51 pm) (8:00 pm)
Dewpoint10 °F16 °F (8:51 pm) (7:00 pm)
Humidity46.3 %61 % (11:51 pm)38 % (2:51 am)
Barometer28.73 in30.09 in (8:51 am) (7:00 pm)
Wind Speed5.1 mph10.4 mph (4:51 am)
Wind Gust18.4 mph (10:51 pm)
Weather ElementAverage
Visibility10 mi
Wind DirectionESE (122.9 °)

Weather ElementTotal
Precipitation---
Heating Degree Days49 (Base 65)
Averaged from 24 records on January 21, 2013
WEATHER CONDITIONS BREAKOUT
WIND DIRECTION BREAKOUT
WEATHER BY HOUR - JANUARY 21, 2013
[ °C ]   °F
Local TimeTemperatureDewpointHumidityBarometerVisibilityWind DirectionWind SpeedGust SpeedPrecipitationEventsConditions
1:51 AM28.0 °F7.0 °F41 %30.06 in10.0 miVariable5.8 mphClear
2:51 AM28.0 °F5.0 °F38 %30.07 in10.0 miVariable5.8 mphClear
3:51 AM27.0 °F6.1 °F41 %30.07 in10.0 miWest (280°)9.2 mphClear
4:51 AM27.0 °F7.0 °F43 %30.07 in10.0 miWest (280°)10.4 mphClear
5:51 AM27.0 °F7.0 °F43 %30.08 in10.0 miWest (270°)8.1 mphClear
6:51 AM27.0 °F8.1 °F45 %30.08 in10.0 miVariable4.6 mphClear
7:51 AM26.1 °F7.0 °F44 %30.08 in10.0 miWNW (290°)6.9 mphClear
8:51 AM27.0 °F8.1 °F45 %30.09 in10.0 miVariable4.6 mphOvercast
9:51 AM28.0 °F8.1 °F43 %30.09 in10.0 miVariable3.5 mphOvercast
10:51 AM30.0 °F8.1 °F40 %30.06 in10.0 miCalmOvercast
11:51 AM30.0 °F9.0 °F41 %30.01 in10.0 miCalmOvercast
12:51 PM32.0 °F10.0 °F40 %29.97 in10.0 miCalmOvercast
1:51 PM30.9 °F10.0 °F42 %29.96 in10.0 miVariable3.5 mphOvercast
2:51 PM30.9 °F10.0 °F42 %29.94 in10.0 miSouth (190°)4.6 mphOvercast
3:51 PM30.0 °F10.9 °F45 %29.90 in10.0 miWSW (250°)8.1 mphOvercast
4:51 PM30.0 °F12.9 °F49 %29.89 in10.0 miCalmOvercast
5:51 PM30.9 °F14.0 °F50 %29.89 in10.0 miWSW (250°)5.8 mphOvercast
6:51 PM30.9 °F14.0 °F50 %29.87 in10.0 miWest (260°)5.8 mphOvercast
7:51 PM30.0 °F12.9 °F49 %29.88 in10.0 miVariable5.8 mphOvercast
8:00 PM0.0 °F0.0 °FNorth
8:51 PM28.9 °F16.0 °F58 %29.86 in10.0 miNorthOvercast
9:51 PM28.9 °F16.0 °F58 %29.85 in10.0 miWNW (300°)5.8 mphOvercast
10:51 PM28.9 °F16.0 °F58 %29.84 in10.0 miWNW (290°)6.9 mph18.4 mphMostly Cloudy
11:51 PM28.0 °F16.0 °F61 %29.83 in10.0 miWNW (290°)6.9 mphClear
Hourly data recorded from KNYC, located miles away from New York - Central Park, New York







STORIES FROM OUR PARTNERS